Camdenton, MO

10:06 PM CDT on April 23, 2017 (GMT -0500)
Camdenton

Weather History for KH21 - February, 2014

Change the Weather History Date:

Wednesday, February 19, 2014

  Actual Average (KAIZ) Record (KAIZ)
Temperature  
Mean Temperature 46 °F -  
Max Temperature 59 °F 46 °F 77 °F (2017)
Min Temperature 33 °F 28 °F -4 °F (2015)
Degree Days  
Heating Degree Days 19    
Moisture  
Dew Point 30 °F    
Average Humidity 52    
Maximum Humidity 93    
Minimum Humidity 23    
Precipitation  
Precipitation 0.00 in - - ()
Sea Level Pressure  
Sea Level Pressure 29.90 in    
Wind  
Wind Speed 8 mph (SE)    
Max Wind Speed 22 mph    
Max Gust Speed 31 mph    
Visibility 10 miles    
Events      
Averages and records for this station are not official NWS values.
T = Trace of Precipitation, MM = Missing Value Source: NWS Daily Summary

Daily Weather History Graph

Daily Weather History Graph

Search for Another Location

Airport or City:

Trip Planner

Search our weather history database for the weather conditions in past years. The results will help you decide how hot, cold, wet, or windy it might be!

Date:

Astronomy

Feb. 19, 2014 Rise Set
Actual Time 6:55 AM CST 5:53 PM CST
Civil Twilight 6:29 AM CST 6:20 PM CST
Nautical Twilight 5:58 AM CST 6:51 PM CST
Astronomical Twilight 5:27 AM CST 7:21 PM CST
Moon 10:42 PM CST (2/19) 9:07 AM CST (2/19)
Length of Visible Light 11h 51m
Length of Day
10h 58m
Waning Gibbous, 79% of the Moon is Illuminated
Feb 19
Waning Gibbous
Feb 22
Last Quarter
Mar 1
New
Mar 8
First Quarter
Mar 16
Full

Hourly Weather History & Observations

Time (CST) Temp. Windchill Dew Point Humidity Pressure Visibility Wind Dir Wind Speed Gust Speed Precip Events Conditions
12:15 AM 50.0 °F - 32.0 °F 50% 29.93 in 10.0 mi NW 11.5 mph - N/A   Clear
12:35 AM 50.0 °F - 32.0 °F 50% 29.95 in 10.0 mi NW 6.9 mph 18.4 mph N/A   Clear
12:55 AM 48.2 °F - 32.0 °F 54% 29.95 in 10.0 mi NW 8.1 mph 17.3 mph N/A   Clear
1:15 AM 46.4 °F 41.5 °F 32.0 °F 57% 29.96 in 10.0 mi NW 10.4 mph 16.1 mph N/A   Clear
1:35 AM 44.6 °F 40.2 °F 32.0 °F 61% 29.97 in 10.0 mi WNW 8.1 mph - N/A   Clear
1:55 AM 44.6 °F 41.4 °F 32.0 °F 61% 29.97 in 10.0 mi West 5.8 mph - N/A   Clear
2:15 AM 44.6 °F 41.4 °F 32.0 °F 61% 29.97 in 10.0 mi WNW 5.8 mph - N/A   Clear
2:35 AM 44.6 °F 41.4 °F 32.0 °F 61% 29.97 in 10.0 mi West 5.8 mph - N/A   Clear
2:55 AM 42.8 °F 40.1 °F 32.0 °F 66% 29.96 in 10.0 mi WSW 4.6 mph - N/A   Clear
3:15 AM 42.8 °F 38.6 °F 32.0 °F 66% 29.96 in 10.0 mi WSW 6.9 mph - N/A   Clear
3:35 AM 42.8 °F 40.1 °F 32.0 °F 66% 29.96 in 10.0 mi West 4.6 mph - N/A   Clear
3:55 AM 42.8 °F 39.3 °F 32.0 °F 66% 29.96 in 10.0 mi WSW 5.8 mph - N/A   Clear
4:15 AM 41.0 °F 37.1 °F 32.0 °F 70% 29.96 in 10.0 mi West 5.8 mph - N/A   Clear
4:35 AM 41.0 °F 38.0 °F 32.0 °F 70% 29.97 in 10.0 mi West 4.6 mph - N/A   Clear
4:55 AM 37.4 °F 33.8 °F 30.2 °F 75% 29.97 in 10.0 mi West 4.6 mph - N/A   Clear
5:15 AM 41.0 °F 37.1 °F 32.0 °F 70% 29.97 in 10.0 mi WSW 5.8 mph - N/A   Clear
5:35 AM 39.2 °F 35.9 °F 32.0 °F 75% 29.97 in 10.0 mi WSW 4.6 mph - N/A   Clear
5:55 AM 39.2 °F 35.9 °F 32.0 °F 75% 29.99 in 10.0 mi West 4.6 mph - N/A   Clear
6:15 AM 39.2 °F 35.0 °F 32.0 °F 75% 29.99 in 10.0 mi WSW 5.8 mph - N/A   Clear
6:35 AM 39.2 °F 35.9 °F 32.0 °F 75% 30.00 in 10.0 mi West 4.6 mph - N/A   Clear
6:55 AM 39.2 °F 35.9 °F 32.0 °F 75% 30.00 in 10.0 mi WSW 4.6 mph - N/A   Clear
7:15 AM 39.2 °F 35.9 °F 32.0 °F 75% 30.02 in 10.0 mi SW 4.6 mph - N/A   Clear
7:35 AM 35.6 °F - 30.2 °F 81% 30.01 in 10.0 mi Calm Calm - N/A   Clear
7:55 AM 33.8 °F 30.8 °F 30.2 °F 87% 30.02 in 10.0 mi South 3.5 mph - N/A   Clear
8:15 AM 33.8 °F - 32.0 °F 93% 30.02 in 10.0 mi Calm Calm - N/A   Clear
8:35 AM 41.0 °F - 32.0 °F 70% 30.02 in 10.0 mi Calm Calm - N/A   Clear
8:55 AM 37.4 °F 32.8 °F 32.0 °F 81% 30.02 in 10.0 mi SSW 5.8 mph - N/A   Clear
9:15 AM 42.8 °F 38.6 °F 32.0 °F 66% 30.04 in 10.0 mi SW 6.9 mph - N/A   Clear
9:35 AM 44.6 °F 40.7 °F 32.0 °F 61% 30.05 in 10.0 mi SSW 6.9 mph - N/A   Clear
9:55 AM 44.6 °F - 32.0 °F 61% 30.05 in 10.0 mi Calm Calm - N/A   Clear
10:15 AM 46.4 °F - 32.0 °F 57% 30.04 in 10.0 mi Calm Calm - N/A   Clear
10:35 AM 46.4 °F - 32.0 °F 57% 30.04 in 10.0 mi Calm Calm - N/A   Clear
10:55 AM 50.0 °F - 32.0 °F 50% 30.04 in 10.0 mi East 3.5 mph - N/A   Clear
11:15 AM 50.0 °F - 32.0 °F 50% 30.03 in 10.0 mi ESE 6.9 mph - N/A   Clear
11:35 AM 51.8 °F - 32.0 °F 47% 30.02 in 10.0 mi ESE 5.8 mph - N/A   Clear
11:55 AM 51.8 °F - 32.0 °F 47% 30.01 in 10.0 mi SE 6.9 mph - N/A   Clear
12:15 PM 53.6 °F - 30.2 °F 41% 29.99 in 10.0 mi SE 4.6 mph - N/A   Clear
12:35 PM 55.4 °F - 30.2 °F 38% 29.96 in 10.0 mi East 5.8 mph - N/A   Clear
12:55 PM 55.4 °F - 30.2 °F 38% 29.93 in 10.0 mi NE 8.1 mph - N/A   Clear
1:15 PM 55.4 °F - 28.4 °F 36% 29.92 in 10.0 mi ENE 6.9 mph - N/A   Clear
1:35 PM 55.4 °F - 26.6 °F 33% 29.90 in 10.0 mi East 9.2 mph - N/A   Clear
1:55 PM 57.2 °F - 26.6 °F 31% 29.91 in 10.0 mi East 11.5 mph - N/A   Clear
2:15 PM 57.2 °F - 28.4 °F 33% 29.90 in 10.0 mi ESE 11.5 mph - N/A   Clear
2:35 PM 57.2 °F - 19.4 °F 23% 29.88 in 10.0 mi East 10.4 mph 16.1 mph N/A   Clear
2:55 PM 57.2 °F - 24.8 °F 29% 29.88 in 10.0 mi ESE 9.2 mph - N/A   Clear
3:15 PM 57.2 °F - 26.6 °F 31% 29.88 in 10.0 mi ESE 12.7 mph - N/A   Clear
3:35 PM 59.0 °F - 24.8 °F 27% 29.88 in 10.0 mi ESE 6.9 mph - N/A   Clear
3:55 PM 59.0 °F - 26.6 °F 29% 29.87 in 10.0 mi East 5.8 mph - N/A   Clear
4:15 PM 59.0 °F - 26.6 °F 29% 29.86 in 10.0 mi East 4.6 mph - N/A   Clear
4:35 PM 59.0 °F - 26.6 °F 29% 29.87 in 10.0 mi East 3.5 mph - N/A   Clear
4:55 PM 55.4 °F - 23.0 °F 29% 29.84 in 10.0 mi East 8.1 mph - N/A   Scattered Clouds
5:15 PM 55.4 °F - 26.6 °F 33% 29.82 in 10.0 mi East 10.4 mph - N/A   Mostly Cloudy
5:35 PM 55.4 °F - 26.6 °F 33% 29.81 in 10.0 mi East 10.4 mph - N/A   Scattered Clouds
5:55 PM 55.4 °F - 26.6 °F 33% 29.80 in 10.0 mi East 9.2 mph - N/A   Mostly Cloudy
6:15 PM 53.6 °F - 26.6 °F 35% 29.80 in 10.0 mi East 9.2 mph - N/A   Mostly Cloudy
6:35 PM 53.6 °F - 26.6 °F 35% 29.79 in 10.0 mi East 9.2 mph - N/A   Mostly Cloudy
6:55 PM 53.6 °F - 26.6 °F 35% 29.78 in 10.0 mi East 11.5 mph 17.3 mph N/A   Mostly Cloudy
7:15 PM 53.6 °F - 26.6 °F 35% 29.76 in 10.0 mi East 11.5 mph - N/A   Overcast
7:35 PM 53.6 °F - 26.6 °F 35% 29.75 in 10.0 mi East 11.5 mph - N/A   Mostly Cloudy
7:55 PM 53.6 °F - 26.6 °F 35% 29.74 in 10.0 mi ESE 13.8 mph 20.7 mph N/A   Scattered Clouds
8:15 PM 53.6 °F - 28.4 °F 38% 29.76 in 10.0 mi ESE 15.0 mph - N/A   Scattered Clouds
8:35 PM 55.4 °F - 28.4 °F 36% 29.77 in 10.0 mi SE 11.5 mph 19.6 mph N/A   Mostly Cloudy
8:55 PM 53.6 °F - 28.4 °F 38% 29.75 in 10.0 mi SE 18.4 mph 23.0 mph N/A   Overcast
9:15 PM 53.6 °F - 30.2 °F 41% 29.75 in 10.0 mi SE 17.3 mph - N/A   Overcast
9:35 PM 53.6 °F - 32.0 °F 44% 29.73 in 10.0 mi SE 21.9 mph 27.6 mph N/A   Overcast
9:55 PM 53.6 °F - 33.8 °F 47% 29.72 in 10.0 mi SE 17.3 mph 27.6 mph N/A   Overcast
10:35 PM 53.6 °F - 35.6 °F 51% 29.70 in 10.0 mi SE 19.6 mph 28.8 mph N/A   Overcast
10:55 PM 53.6 °F - 37.4 °F 54% 29.69 in 10.0 mi SE 19.6 mph 31.1 mph N/A   Overcast
11:15 PM 53.6 °F - 37.4 °F 54% 29.68 in 10.0 mi SE 19.6 mph 31.1 mph N/A   Overcast
11:35 PM 53.6 °F - 39.2 °F 58% 29.67 in 10.0 mi SE 19.6 mph 24.2 mph N/A   Overcast
11:55 PM 53.6 °F - 39.2 °F 58% 29.66 in 10.0 mi SE 19.6 mph 24.2 mph N/A   Overcast